Погода в Алешне

Россия / Тульская область     54°14′40″N   37°15′40″E
темп.,
°C
ветер,
м/с
пор.,
м/с
влажн.,
%
обл.,
%
осадки,
мм/ч
давл.,
гПа
погр.,
м
21 июня, пн
пн2100:00+18юв2287100 0.0 102111
03:00+17вюв2289100 0.0 102111
06:00+19юв238684 0.0 102189
09:00+22юв3474100 0.0 1021372
12:00+25юв4564100 0.0 1021821
15:00+26юв3464100 0.0 1020868
18:00+26вюв357112 0.0 1020656
21:00+21юв33865 0.0 102030
22 июня, вт
вт2200:00+19юв22915 0.0 102020
03:00+18юв229153 0.0 102118
06:00+19юв23885 0.0 102182
09:00+24ююв35735 0.0 1021375
12:00+27ююв45600 0.0 1021897
15:00+29ююв34555 0.0 10211164
18:00+28ююв35685 0.0 1020275
21:00+22юв22803 0.0 102113
23 июня, ср
ср2300:00+19юв22886 0.0 102118
03:00+18юв228719 0.0 102113
06:00+20вюв22845 0.0 102261
09:00+25вюв34685 0.0 1021389
12:00+28юв34561 0.0 10211217
15:00+29юв33522 0.0 10211470
18:00+28юв24660 0.0 1020391
21:00+23вюв22795 0.0 102011
24 июня, чт
чт2400:00+20вюв22851 0.0 102011
03:00+19юв22880 0.0 102111
06:00+21юв23840 0.0 102069
09:00+26юв22690 0.0 1020371
12:00+29ю23621 0.0 1020955
15:00+30ююз23571 0.0 10191335
18:00+30юз12650 0.1 10181101
21:00+24ю22770 0.1 101711
25 июня, пт
пт2500:00+22ююз11843 0.1 101811
03:00+21юз118899 1.6 101711
06:00+22ссз1188100 1.0 101741
09:00+26зюз11755 1.0 1017321
12:00+29юз226163 0.0 10171059
15:00+30зюз225644 0.0 10161538
18:00+29ю34700 0.0 1013315
21:00+22зюз3587100 2.6 101587